This is the latest recevied weather packets stored in our database for station/object W7TRD. If no packets are shown the sender has not sent any weather packets the latest 10 day(s).
| Time | Temp. | Humidity | Pressure | Rain* | Wind** | Luminosity | Snow |
|---|---|---|---|---|---|---|---|
| 1788470263 | 16.67° C | 69% | 1011.1 hPa | 0 mm | - | 174 W/m² | - |
| 1788469960 | 16.67° C | 68% | 1011.1 hPa | 0 mm | - | 204 W/m² | - |
| 1788469655 | 16.67° C | 70% | 1010.9 hPa | 0 mm | - | 201 W/m² | - |
| 1788469351 | 16.67° C | 70% | 1011 hPa | 0 mm | - | 180 W/m² | - |
| 1788469050 | 16.67° C | 69% | 1010.8 hPa | 0 mm | - | 186 W/m² | - |
| 1788468749 | 17.22° C | 68% | 1011 hPa | 0 mm | - | 188 W/m² | - |
| 1788468445 | 17.22° C | 67% | 1010.9 hPa | 0 mm | - | 214 W/m² | - |
| 1788468141 | 17.22° C | 67% | 1011.2 hPa | 0 mm | - | 309 W/m² | - |
| 1788467836 | 17.22° C | 67% | 1011 hPa | 0 mm | - | 325 W/m² | - |
| 1788467533 | 17.22° C | 66% | 1010.9 hPa | 0 mm | - | 294 W/m² | - |
| 1788467232 | 17.22° C | 66% | 1011 hPa | 0 mm | - | 305 W/m² | - |
| 1788466928 | 17.78° C | 65% | 1010.8 hPa | 0 mm | - | 286 W/m² | - |
| 1788466627 | 17.78° C | 64% | 1011 hPa | 0 mm | - | 347 W/m² | - |
| 1788466323 | 18.89° C | 65% | 1011 hPa | 0 mm | - | 355 W/m² | - |
| 1788466021 | 18.89° C | 64% | 1011 hPa | 0 mm | - | 622 W/m² | - |
| 1788465717 | 18.33° C | 65% | 1011 hPa | 0 mm | - | 854 W/m² | - |
| 1788465413 | 17.78° C | 66% | 1011.1 hPa | 0 mm | - | 535 W/m² | - |
| 1788465109 | 17.78° C | 67% | 1011.3 hPa | 0 mm | - | 419 W/m² | - |
| 1788464808 | 17.78° C | 69% | 1010.9 hPa | 0 mm | - | 355 W/m² | - |
| 1788464503 | 18.33° C | 70% | 1011 hPa | 0 mm | - | 314 W/m² | - |
| 1788464199 | 17.78° C | 70% | 1011.1 hPa | 0 mm | - | 353 W/m² | - |
| 1788463894 | 17.78° C | 71% | 1011.2 hPa | 0 mm | - | 559 W/m² | - |
| 1788463592 | 16.67° C | 75% | 1011.1 hPa | 0 mm | - | 511 W/m² | - |
| 1788463291 | 16.67° C | 76% | 1011.2 hPa | 0 mm | - | 355 W/m² | - |
| 1788462987 | 16.67° C | 79% | 1011.1 hPa | 0 mm | - | 316 W/m² | - |
* Rain latest hour (hover to see other rain measurements)
** Current wind speed in m/s (hover to see current wind gust speed)